Regional Weather Roundup
Issued by NWS

Home | Current Version | Previous Version | Text Only | Print | Product List | Glossary Off
Versions: 1 2 3 4 5 6 7 8 9 10 11 12 13 14 15 16 17 18 19 20 21 22 23 24 25 26 27 28 29 30 31 32 33 34 35 36 37 38 39 40 41 42 43 44 45 46 47 48 49 50

000
ASUS43 KOAX 202002
RWRNE

WEATHER ROUNDUP FOR NEBRASKA
NATIONAL WEATHER SERVICE OMAHA NE
300 PM CDT WED AUG 20 2014

NOTES: SATELLITE DATA IS BEING USED TO AUGMENT CLOUD COVER ABOVE
       12000 FEET.
       "FAIR" INDICATES FEW OR NO CLOUDS BELOW 12,000 FEET WITH NO
       SIGNIFICANT WEATHER AND/OR OBSTRUCTIONS TO VISIBILITY.

  * THESE STATIONS DO NOT REPORT WEATHER SUCH AS RAIN...SNOW OR FOG.

NEZ001>004-019>022-054>056-202100-
NEBRASKA PANHANDLE

CITY           SKY/WX    TMP DP  RH WIND       PRES   REMARKS
SCOTTSBLUFF    SUNNY     91  52  26 W17G26    29.83S
ALLIANCE       MOSUNNY   93  50  23 W10G21    29.81F HX  90
CHADRON        SUNNY     93  53  25 VRB7G21   29.74F HX  90
KIMBALL        MOSUNNY   87  46  24 W20G30    29.89S
SIDNEY         PTSUNNY   92  49  22 VRB6      29.86F
$$

NEZ057>060-069>072-079>082-202100-
SOUTHWEST NEBRASKA

CITY           SKY/WX    TMP DP  RH WIND       PRES   REMARKS
NORTH PLATTE   PTSUNNY   85  65  51 CALM      29.78F
IMPERIAL       SUNNY     88  59  37 VRB6      29.81F
LEXINGTON      MOSUNNY   89  71  53 S15       29.76S HX  95
MCCOOK         MOSUNNY   96  60  30 S8        29.75S HX  96
OGALLALA       SUNNY     89  53  29 E10       29.80S
$$

NEZ005>010-023>029-035>040-094-202100-
NORTH CENTRAL NEBRASKA

CITY           SKY/WX    TMP DP  RH WIND       PRES   REMARKS
VALENTINE      MOSUNNY   89  59  36 MISG      29.74F
AINSWORTH      PTSUNNY   84  66  54 SE8       29.76S
BROKEN BOW     PTSUNNY   88  71  57 S14G24    29.76S HX  94
O`NEILL        CLOUDY    84  72  66 SE12G17   29.75F HX  90
ORD            PTSUNNY   85  71  63 SE14G21   29.73F HX  90
THEDFORD       MOSUNNY   86  66  51 SE7       29.79R
$$

NEZ041-046>049-061>064-073>077-083>087-202100-
SOUTH CENTRAL NEBRASKA

CITY           SKY/WX    TMP DP  RH WIND       PRES   REMARKS
GRAND ISLAND   MOSUNNY   89  74  60 S20G26    29.77S HX  98
AURORA         SUNNY     91  71  53 S18G26    29.77S HX  97
HASTINGS       SUNNY     90  67  46 SE18G24   29.77S HX  93
HEBRON         SUNNY     90  68  48 S13G22    29.78F HX  94
HOLDREGE       SUNNY     91  66  44 S14G20    29.76S HX  93
KEARNEY *      SUNNY     90  73  58 SE17      29.77S HX  98
$$

NEZ011>018-030>034-042>045-202100-
NORTHEAST NEBRASKA

CITY           SKY/WX    TMP DP  RH WIND       PRES   REMARKS
NORFOLK        CLOUDY    80  70  71 SE12      29.78S
ALBION         PTSUNNY   84  71  63 SE14      29.77F
BLAIR          MOSUNNY   85  74  67 SE14G20   29.80F HX  93
COLUMBUS *     PTSUNNY   84  73  70 SE15      29.78F HX  91
FREMONT        CLOUDY    90  72  55 SE14G22   29.78F HX  96
TEKAMAH        CLOUDY    86  72  62 SE17      29.79F HX  92
WAYNE          CLOUDY    76  71  85 SE10      29.79F
$$

NEZ050>053-065>068-078-088>093-202100-
SOUTHEAST NEBRASKA

CITY           SKY/WX    TMP DP  RH WIND       PRES   REMARKS
LINCOLN        SUNNY     94  67  41 S20       29.78F HX  97
OMAHA EPPLEY   PTSUNNY   89  72  56 S18       29.80F HX  96
BEATRICE       SUNNY     93  69  45 S14G22    29.80S HX  98
FALLS CITY     MOSUNNY   93  72  50 S15G23    29.82F HX 101
NEBRASKA CITY  SUNNY     88  73  62 SE16      29.83F HX  96
PLATTSMOUTH    SUNNY     89  71  55 SE13G22   29.82F HX  95
$$

NEZ044-045-051>053-067-202100-
OMAHA AREA

CITY           SKY/WX    TMP DP  RH WIND       PRES   REMARKS
OMAHA EPPLEY   PTSUNNY   89  72  56 S18       29.80F HX  96
BLAIR          MOSUNNY   85  74  67 SE14G20   29.80F HX  93
FREMONT        CLOUDY    90  72  55 SE14G22   29.78F HX  96
MILLARD        MOSUNNY   89  74  61 SE12G22   29.79F HX  97
OFFUTT AFB     MOSUNNY   89  78  70 SE18G25   29.80F HX 101
PLATTSMOUTH    SUNNY     89  71  55 SE13G22   29.82F HX  95
WAHOO          FAIR      92  68  44 SE17      29.78F HX  97
$$



USA.gov is the U.S. government's official web portal to all federal, state and local government web resources and services.